Time,TemperatureF,DewpointF,PressureIn,WindDirection,WindDirectionDegrees,WindSpeedMPH,WindSpeedGustMPH,Humidity,HourlyPrecipIn,Conditions,Clouds,dailyrainin,SoftwareType,DateUTC
2013-01-07 00:22:00,42.7,29.0,30.04,West,271,4.0,10.0,59,0.00,,,0.00,weatherlink.com 1.10,2013-01-07 05:22:00,
2013-01-07 00:37:00,42.6,29.0,30.04,NW,304,2.0,9.0,60,0.00,,,0.00,weatherlink.com 1.10,2013-01-07 05:37:00,
2013-01-07 00:52:00,42.2,29.0,30.05,WNW,288,5.0,10.0,61,0.00,,,0.00,weatherlink.com 1.10,2013-01-07 05:52:00,
2013-01-07 01:07:00,42.0,29.0,30.05,NW,319,5.0,9.0,61,0.00,,,0.00,weatherlink.com 1.10,2013-01-07 06:07:00,
2013-01-07 01:22:00,41.7,29.0,30.06,WNW,291,3.0,9.0,62,0.00,,,0.00,weatherlink.com 1.10,2013-01-07 06:22:00,
2013-01-07 01:37:00,41.5,30.0,30.06,WNW,302,2.0,7.0,63,0.00,,,0.00,weatherlink.com 1.10,2013-01-07 06:37:00,
2013-01-07 01:52:00,41.3,29.0,30.07,NW,314,2.0,10.0,63,0.00,,,0.00,weatherlink.com 1.10,2013-01-07 06:52:00,
2013-01-07 02:07:00,41.0,30.0,30.07,NW,311,2.0,10.0,64,0.00,,,0.00,weatherlink.com 1.10,2013-01-07 07:07:00,
2013-01-07 02:22:00,40.7,29.0,30.07,NW,307,4.0,10.0,64,0.00,,,0.00,weatherlink.com 1.10,2013-01-07 07:22:00,
2013-01-07 02:37:00,40.5,29.0,30.08,NW,326,3.0,11.0,65,0.00,,,0.00,weatherlink.com 1.10,2013-01-07 07:37:00,
2013-01-07 02:52:00,40.4,30.0,30.08,WNW,288,2.0,12.0,66,0.00,,,0.00,weatherlink.com 1.10,2013-01-07 07:52:00,
2013-01-07 03:07:00,40.3,30.0,30.08,NNW,338,3.0,9.0,66,0.00,,,0.00,weatherlink.com 1.10,2013-01-07 08:07:00,
2013-01-07 03:22:00,40.1,30.0,30.09,WNW,284,2.0,6.0,67,0.00,,,0.00,weatherlink.com 1.10,2013-01-07 08:22:00,
2013-01-07 03:37:00,40.0,30.0,30.09,West,270,3.0,8.0,68,0.00,,,0.00,weatherlink.com 1.10,2013-01-07 08:37:00,
2013-01-07 03:52:00,39.8,30.0,30.09,NW,307,4.0,7.0,68,0.00,,,0.00,weatherlink.com 1.10,2013-01-07 08:52:00,
2013-01-07 04:07:00,39.8,30.0,30.10,WNW,302,7.0,12.0,67,0.00,,,0.00,weatherlink.com 1.10,2013-01-07 09:07:00,
2013-01-07 04:22:00,39.7,30.0,30.10,WNW,283,3.0,9.0,68,0.00,,,0.00,weatherlink.com 1.10,2013-01-07 09:22:00,
2013-01-07 04:37:00,39.6,30.0,30.11,WNW,301,5.0,9.0,68,0.00,,,0.00,weatherlink.com 1.10,2013-01-07 09:37:00,
2013-01-07 04:53:00,39.5,30.0,30.11,West,271,3.0,10.0,68,0.00,,,0.00,weatherlink.com 1.10,2013-01-07 09:53:00,
2013-01-07 05:08:00,39.7,30.0,30.12,West,272,5.0,11.0,68,0.00,,,0.00,weatherlink.com 1.10,2013-01-07 10:08:00,
2013-01-07 05:23:00,39.8,30.0,30.13,NW,312,6.0,7.0,68,0.00,,,0.00,weatherlink.com 1.10,2013-01-07 10:23:00,
2013-01-07 05:38:00,39.8,30.0,30.14,WNW,290,3.0,10.0,68,0.00,,,0.00,weatherlink.com 1.10,2013-01-07 10:38:00,
2013-01-07 05:53:00,39.8,30.0,30.15,SW,219,1.0,7.0,68,0.00,,,0.00,weatherlink.com 1.10,2013-01-07 10:53:00,
2013-01-07 06:08:00,39.7,30.0,30.16,West,270,0.0,3.0,68,0.00,,,0.00,weatherlink.com 1.10,2013-01-07 11:08:00,
2013-01-07 06:23:00,39.5,30.0,30.17,WNW,303,1.0,4.0,68,0.00,,,0.00,weatherlink.com 1.10,2013-01-07 11:23:00,
2013-01-07 06:38:00,39.5,30.0,30.18,WNW,297,1.0,5.0,68,0.00,,,0.00,weatherlink.com 1.10,2013-01-07 11:38:00,
2013-01-07 06:53:00,39.5,30.0,30.19,NW,307,4.0,6.0,69,0.00,,,0.00,weatherlink.com 1.10,2013-01-07 11:53:00,
2013-01-07 07:08:00,39.5,30.0,30.19,NNW,329,7.0,12.0,68,0.00,,,0.00,weatherlink.com 1.10,2013-01-07 12:08:00,
2013-01-07 07:23:00,39.7,30.0,30.20,NW,310,4.0,9.0,68,0.00,,,0.00,weatherlink.com 1.10,2013-01-07 12:23:00,
2013-01-07 07:38:00,40.1,30.0,30.21,West,262,2.0,10.0,68,0.00,,,0.00,weatherlink.com 1.10,2013-01-07 12:38:00,
2013-01-07 07:53:00,40.5,31.0,30.22,NW,307,2.0,7.0,68,0.00,,,0.00,weatherlink.com 1.10,2013-01-07 12:53:00,
2013-01-07 08:08:00,40.9,31.0,30.23,WNW,283,3.0,10.0,67,0.00,,,0.00,weatherlink.com 1.10,2013-01-07 13:08:00,
2013-01-07 08:23:00,40.9,31.0,30.24,West,264,3.0,9.0,67,0.00,,,0.00,weatherlink.com 1.10,2013-01-07 13:23:00,
2013-01-07 08:38:00,41.4,30.0,30.24,West,264,3.0,9.0,65,0.00,,,0.00,weatherlink.com 1.10,2013-01-07 13:38:00,
2013-01-07 08:53:00,41.8,31.0,30.25,WNW,288,4.0,10.0,65,0.00,,,0.00,weatherlink.com 1.10,2013-01-07 13:53:00,
2013-01-07 09:08:00,42.0,30.0,30.25,SSE,150,3.0,10.0,63,0.00,,,0.00,weatherlink.com 1.10,2013-01-07 14:08:00,
2013-01-07 09:23:00,42.3,29.0,30.26,WNW,285,5.0,15.0,60,0.00,,,0.00,weatherlink.com 1.10,2013-01-07 14:23:00,
2013-01-07 09:38:00,42.7,29.0,30.27,WNW,287,4.0,11.0,59,0.00,,,0.00,weatherlink.com 1.10,2013-01-07 14:38:00,
2013-01-07 09:53:00,42.7,28.0,30.28,West,278,8.0,14.0,56,0.00,,,0.00,weatherlink.com 1.10,2013-01-07 14:53:00,
2013-01-07 10:08:00,43.2,28.0,30.29,NW,313,6.0,11.0,56,0.00,,,0.00,weatherlink.com 1.10,2013-01-07 15:08:00,
2013-01-07 10:23:00,43.4,28.0,30.29,West,278,4.0,8.0,56,0.00,,,0.00,weatherlink.com 1.10,2013-01-07 15:23:00,
2013-01-07 10:38:00,43.5,27.0,30.30,WSW,252,8.0,16.0,53,0.00,,,0.00,weatherlink.com 1.10,2013-01-07 15:38:00,
2013-01-07 10:53:00,43.5,26.0,30.30,WNW,292,6.0,11.0,51,0.00,,,0.00,weatherlink.com 1.10,2013-01-07 15:53:00,
2013-01-07 11:08:00,43.6,26.0,30.30,NE,50,1.0,10.0,50,0.00,,,0.00,weatherlink.com 1.10,2013-01-07 16:08:00,
2013-01-07 11:39:00,44.4,25.0,30.29,ESE,112,4.0,7.0,47,0.00,,,0.00,weatherlink.com 1.10,2013-01-07 16:39:00,
2013-01-07 11:54:00,44.1,24.0,30.30,West,278,4.0,12.0,46,0.00,,,0.00,weatherlink.com 1.10,2013-01-07 16:54:00,
2013-01-07 12:09:00,44.3,24.0,30.30,WNW,292,6.0,7.0,45,0.00,,,0.00,weatherlink.com 1.10,2013-01-07 17:09:00,
2013-01-07 12:24:00,45.1,24.0,30.30,WNW,284,5.0,7.0,44,0.00,,,0.00,weatherlink.com 1.10,2013-01-07 17:24:00,
2013-01-07 12:39:00,45.5,25.0,30.30,ENE,58,4.0,12.0,44,0.00,,,0.00,weatherlink.com 1.10,2013-01-07 17:39:00,
2013-01-07 12:54:00,45.0,24.0,30.31,WNW,296,1.0,10.0,44,0.00,,,0.00,weatherlink.com 1.10,2013-01-07 17:54:00,
2013-01-07 13:09:00,45.1,24.0,30.31,WNW,294,6.0,10.0,43,0.00,,,0.00,weatherlink.com 1.10,2013-01-07 18:09:00,
2013-01-07 13:24:00,45.3,23.0,30.31,West,274,3.0,7.0,42,0.00,,,0.00,weatherlink.com 1.10,2013-01-07 18:24:00,
2013-01-07 13:39:00,45.5,24.0,30.31,West,276,1.0,8.0,43,0.00,,,0.00,weatherlink.com 1.10,2013-01-07 18:39:00,
2013-01-07 13:54:00,46.0,24.0,30.31,WSW,240,2.0,7.0,42,0.00,,,0.00,weatherlink.com 1.10,2013-01-07 18:54:00,
2013-01-07 14:09:00,45.2,23.0,30.31,WSW,240,2.0,9.0,42,0.00,,,0.00,weatherlink.com 1.10,2013-01-07 19:09:00,
2013-01-07 14:24:00,45.8,22.0,30.32,WNW,283,1.0,7.0,39,0.00,,,0.00,weatherlink.com 1.10,2013-01-07 19:24:00,
2013-01-07 14:39:00,46.1,22.0,30.33,WNW,283,3.0,8.0,39,0.00,,,0.00,weatherlink.com 1.10,2013-01-07 19:39:00,
2013-01-07 14:54:00,46.3,22.0,30.33,West,276,2.0,5.0,39,0.00,,,0.00,weatherlink.com 1.10,2013-01-07 19:54:00,
2013-01-07 15:09:00,46.2,23.0,30.34,West,278,3.0,4.0,40,0.00,,,0.00,weatherlink.com 1.10,2013-01-07 20:09:00,
2013-01-07 15:24:00,45.6,24.0,30.34,SW,224,1.0,5.0,42,0.00,,,0.00,weatherlink.com 1.10,2013-01-07 20:24:00,
2013-01-07 15:39:00,45.2,23.0,30.34,WNW,284,2.0,5.0,42,0.00,,,0.00,weatherlink.com 1.10,2013-01-07 20:39:00,
2013-01-07 15:54:00,45.0,23.0,30.35,WSW,252,2.0,4.0,42,0.00,,,0.00,weatherlink.com 1.10,2013-01-07 20:54:00,
2013-01-07 16:09:00,44.9,22.0,30.35,West,263,0.0,5.0,41,0.00,,,0.00,weatherlink.com 1.10,2013-01-07 21:09:00,
2013-01-07 16:24:00,44.5,23.0,30.36,West,273,3.0,3.0,42,0.00,,,0.00,weatherlink.com 1.10,2013-01-07 21:24:00,
2013-01-07 16:39:00,44.2,22.0,30.36,WSW,242,2.0,2.0,42,0.00,,,0.00,weatherlink.com 1.10,2013-01-07 21:39:00,
2013-01-07 16:54:00,44.3,22.0,30.37,WNW,288,2.0,5.0,42,0.00,,,0.00,weatherlink.com 1.10,2013-01-07 21:54:00,
2013-01-07 17:09:00,44.0,22.0,30.37,WNW,285,1.0,3.0,42,0.00,,,0.00,weatherlink.com 1.10,2013-01-07 22:09:00,
2013-01-07 17:24:00,43.9,23.0,30.37,WNW,283,0.0,4.0,43,0.00,,,0.00,weatherlink.com 1.10,2013-01-07 22:24:00,
2013-01-07 17:39:00,43.5,22.0,30.38,WNW,288,2.0,3.0,43,0.00,,,0.00,weatherlink.com 1.10,2013-01-07 22:39:00,
2013-01-07 17:54:00,43.5,23.0,30.38,NW,310,0.0,5.0,44,0.00,,,0.00,weatherlink.com 1.10,2013-01-07 22:54:00,
2013-01-07 18:09:00,43.4,23.0,30.38,WNW,302,2.0,4.0,44,0.00,,,0.00,weatherlink.com 1.10,2013-01-07 23:09:00,
2013-01-07 18:24:00,42.9,22.0,30.38,SW,235,0.0,3.0,44,0.00,,,0.00,weatherlink.com 1.10,2013-01-07 23:24:00,
2013-01-07 18:39:00,42.7,22.0,30.38,WSW,249,0.0,1.0,44,0.00,,,0.00,weatherlink.com 1.10,2013-01-07 23:39:00,
2013-01-07 18:54:00,42.6,22.0,30.38,WSW,257,2.0,3.0,44,0.00,,,0.00,weatherlink.com 1.10,2013-01-07 23:54:00,
2013-01-07 19:09:00,42.7,22.0,30.38,West,274,1.0,2.0,44,0.00,,,0.00,weatherlink.com 1.10,2013-01-08 00:09:00,
2013-01-07 19:24:00,42.6,22.0,30.38,WNW,285,2.0,2.0,44,0.00,,,0.00,weatherlink.com 1.10,2013-01-08 00:24:00,
2013-01-07 19:39:00,42.5,22.0,30.38,West,273,2.0,2.0,45,0.00,,,0.00,weatherlink.com 1.10,2013-01-08 00:39:00,
2013-01-07 19:54:00,42.1,23.0,30.38,SSW,205,1.0,1.0,46,0.00,,,0.00,weatherlink.com 1.10,2013-01-08 00:54:00,
2013-01-07 20:09:00,42.2,23.0,30.38,West,276,0.0,3.0,46,0.00,,,0.00,weatherlink.com 1.10,2013-01-08 01:09:00,
2013-01-07 20:24:00,41.9,23.0,30.38,SW,236,0.0,2.0,47,0.00,,,0.00,weatherlink.com 1.10,2013-01-08 01:24:00,
2013-01-07 20:39:00,41.5,22.0,30.38,WNW,284,0.0,2.0,47,0.00,,,0.00,weatherlink.com 1.10,2013-01-08 01:39:00,
2013-01-07 20:54:00,41.3,22.0,30.37,WSW,252,0.0,2.0,47,0.00,,,0.00,weatherlink.com 1.10,2013-01-08 01:54:00,
2013-01-07 21:09:00,41.0,22.0,30.38,SSW,211,0.0,1.0,48,0.00,,,0.00,weatherlink.com 1.10,2013-01-08 02:09:00,
2013-01-07 21:24:00,40.6,23.0,30.37,SSW,195,0.0,1.0,49,0.00,,,0.00,weatherlink.com 1.10,2013-01-08 02:24:00,
2013-01-07 21:39:00,40.3,22.0,30.37,WSW,256,0.0,1.0,49,0.00,,,0.00,weatherlink.com 1.10,2013-01-08 02:39:00,
2013-01-07 21:54:00,39.9,22.0,30.37,SSW,194,0.0,1.0,50,0.00,,,0.00,weatherlink.com 1.10,2013-01-08 02:54:00,
2013-01-07 22:09:00,39.8,22.0,30.38,SSW,194,0.0,1.0,50,0.00,,,0.00,weatherlink.com 1.10,2013-01-08 03:09:00,
2013-01-07 22:24:00,39.4,23.0,30.38,SE,139,0.0,1.0,52,0.00,,,0.00,weatherlink.com 1.10,2013-01-08 03:24:00,
2013-01-07 22:39:00,39.5,23.0,30.38,South,179,0.0,1.0,52,0.00,,,0.00,weatherlink.com 1.10,2013-01-08 03:39:00,
2013-01-07 22:54:00,39.7,23.0,30.38,SSW,198,0.0,1.0,52,0.00,,,0.00,weatherlink.com 1.10,2013-01-08 03:54:00,
2013-01-07 23:09:00,40.5,24.0,30.38,WNW,293,5.0,7.0,52,0.00,,,0.00,weatherlink.com 1.10,2013-01-08 04:09:00,
2013-01-07 23:24:00,39.4,26.0,30.38,West,280,1.0,7.0,58,0.00,,,0.00,weatherlink.com 1.10,2013-01-08 04:24:00,
2013-01-07 23:39:00,38.8,26.0,30.38,NW,311,1.0,2.0,60,0.00,,,0.00,weatherlink.com 1.10,2013-01-08 04:39:00,
2013-01-07 23:54:00,38.8,25.0,30.38,SW,229,1.0,3.0,59,0.00,,,0.00,weatherlink.com 1.10,2013-01-08 04:54:00,